Location: Unspecified
(41.5000°N, 0.0000°E)
Time: 00:57:27
(UTC+00:00)

Vanguard 2 - Pass Details

Date: 28 June 2019
Orbit: 553 x 2938 km, 32.9° (Epoch: 20 July)

Event Time Altitude Azimuth Distance (km) Brightness Sun altitude
Rises 11:45:40 0° 263° (W) 3,715 11.0 71.4°
Reaches altitude 10° 11:48:38 10° 247° (WSW) 3,069 10.8 71.5°
Maximum altitude 11:54:16 22° 200° (SSW) 2,848 11.1 71.7°
Drops below altitude 10° 12:02:04 10° 157° (SSE) 4,405 11.8 71.8°
Sets 12:07:33 0° 144° (SE) 5,861 12.2 71.8°
